Flag for Russia Weather past 2 weeks in Surgut, Russia

Now
50 °F

Overcast.


Feels Like: 47 °F
Forecast: 46 / 57 °F
Wind: 8 mph from Southwest

Location: Surgut Airport

Current Time: Sep 22, 2014 at 3:13:21 PM

Latest Report: Sep 22, 2014 at 2:30 PM


Visibility: 4 mi

Pressure: 29.89 "Hg

Humidity: 88%

Dew point: 46 °F

Location of SurgutLocation

Historic Weather in Surgut — Graph

°F

Surgut temperature yesterday

Maximum temperature yesterday: 46 °F (at 2:00 PM)
Minimum temperature yesterday: 30 °F (at 4:30 AM)
Average temperature yesterday: 38 °F

Past Weeks' High & Low Weather Summary

 TemperatureHumidityPressure
High55 °F (Sep 13, 12:00 PM)100% (Sep 7, 3:00 PM)30.12 "Hg (Sep 7, 3:00 PM)
Low30 °F (Sep 21, 4:30 AM)50% (Sep 21, 5:00 PM)29.15 "Hg (Sep 18, 3:00 AM)
Average42 °F86%29.71 "Hg
* Reported Sep 7 2:00 PM — Sep 22 2:00 PM, Surgut, Weather by CustomWeather, © 2014

Note: Actual official high and low records may vary slightly from our data, if they occured in-between our weather recording intervals... More about our weather records

Advertising

Surgut weather history for previous 24 hours

 ConditionsComfort  
Time TempWeatherWind HumidityBarometerVisibility
2:00 PM
Sep 22
48 °FOvercast.8 mph87%29.89 "Hg4 mi
1:30 PM48 °FOvercast.8 mph87%29.89 "Hg4 mi
1:00 PM46 °FDrizzle. Fog.6 mph93%29.89 "Hg3 mi
12:30 PM46 °FDrizzle. Fog.6 mph93%29.89 "Hg3 mi
12:00 PM46 °FDrizzle. Fog.6 mph87%29.89 "Hg3 mi
11:30 AM45 °FFog.6 mph93%29.89 "Hg3 mi
11:00 AM45 °FFog.6 mph93%29.89 "Hg3 mi
10:30 AM43 °FFog.3 mph100%29.89 "Hg3 mi
10:00 AM43 °FFog.3 mph93%29.89 "Hg1 mi
9:30 AM41 °FFog.3 mph100%29.89 "Hg0 mi
9:00 AM41 °FFog.3 mph100%29.86 "Hg1 mi
8:30 AM39 °FFog.3 mph100%29.86 "Hg1 mi
8:00 AM39 °FDrizzle. Fog.3 mph100%29.86 "Hg2 mi
7:30 AM39 °FLow clouds.3 mph93%29.86 "Hg4 mi
7:00 AM39 °FPassing clouds.3 mph93%29.86 "Hg4 mi
6:30 AM39 °FPartly cloudy.3 mph93%29.86 "Hg4 mi
6:00 AM39 °FMostly cloudy.3 mph93%29.86 "Hg4 mi
5:30 AM39 °FMostly cloudy.3 mph87%29.86 "Hg4 mi
5:00 AM39 °FMostly cloudy.3 mph87%29.86 "Hg4 mi
4:30 AM39 °FMostly cloudy.3 mph87%29.86 "Hg4 mi
4:00 AM39 °FMostly cloudy.6 mph87%29.86 "Hg4 mi
3:30 AM39 °FMostly cloudy.3 mph87%29.86 "Hg4 mi
3:00 AM39 °FLight rain. Overcast.3 mph81%29.86 "Hg4 mi
2:30 AM39 °FLight rain. Mostly cloudy.6 mph81%29.86 "Hg4 mi
2:00 AM39 °FMostly cloudy.N/A75%29.86 "HgN/A
1:30 AM39 °FOvercast.6 mph75%29.86 "Hg4 mi
12:30 AM39 °FOvercast.6 mph70%29.89 "Hg4 mi
12:00 AM39 °FOvercast.6 mph70%29.89 "Hg4 mi
11:30 PM
Sep 21
39 °FPassing clouds.6 mph70%29.89 "Hg4 mi
11:00 PM39 °FPassing clouds.6 mph70%29.92 "Hg4 mi
10:30 PM39 °FPassing clouds.6 mph70%29.92 "Hg4 mi
10:00 PM39 °FPassing clouds.8 mph70%29.92 "Hg4 mi
9:30 PM39 °FPassing clouds.6 mph75%29.92 "Hg4 mi
9:00 PM39 °FPassing clouds.3 mph75%29.92 "Hg4 mi
8:30 PM39 °FPassing clouds.3 mph75%29.92 "Hg4 mi
8:00 PM39 °FScattered clouds.6 mph75%29.92 "Hg4 mi
7:30 PM41 °FScattered clouds.3 mph66%29.92 "Hg4 mi
7:00 PM43 °FScattered clouds.10 mph61%29.92 "Hg4 mi
6:30 PM45 °FScattered clouds.10 mph57%29.92 "Hg4 mi
6:00 PM46 °FScattered clouds.15 mph50%29.92 "Hg4 mi
5:30 PM46 °FScattered clouds.10 mph50%29.92 "Hg4 mi
5:00 PM46 °FPartly sunny.13 mph50%29.95 "Hg4 mi
4:30 PM45 °FScattered clouds.10 mph53%29.95 "Hg4 mi
4:00 PM46 °FScattered clouds.13 mph53%29.95 "Hg4 mi
3:30 PM46 °FScattered clouds.15 mph53%29.95 "Hg4 mi
3:00 PM45 °FScattered clouds.15 mph57%29.95 "Hg4 mi
Weather by CustomWeather, © 2014

See weather overviewHow to use our weather pages